Terug naar catalogus

FENGYUN 1C DEB

LostPO
NORAD 36700·DEBRIS·🇨🇳 China

Gelanceerd May 10, 1999 vanaf Taiyuan Satellite Launch Center

Loading…

Volgende Passages (komende 24 uur)

TLE

VerouderdSource: Space-Track

Epoch: Jan 26, 2023, 15:13 UTC

1 36700U 99025DZW 23026.63450187  .00003827  00000-0  30928-2 0  9992
2 36700  99.8269 337.0616 0154842  25.8404 335.0381 13.85500706483388

Volg FENGYUN 1C DEB in realtime met AllMySat

Download on the App Store